| time (UTC) | temp F | wind direction | speed knots | gust knots | rain 1hr in | rain 24hr in | rain mn in | humidity % | barometer mb |
| 20260831022403 | 95 | 230 | 2.6 | 7.8 | 0.00 | 0.00 | 0.00 | 34 | 1011.4 |
| 20260831021904 | 95 | 224 | 4.3 | 7.8 | 0.00 | 0.00 | 0.00 | 34 | 1011.1 |
| 20260831021403 | 95 | 229 | 3.5 | 7.0 | 0.00 | 0.00 | 0.00 | 34 | 1011.0 |
| 20260831020903 | 95 | 251 | 2.6 | 6.1 | 0.00 | 0.00 | 0.00 | 34 | 1010.8 |
| 20260831020403 | 95 | 229 | 2.6 | 5.2 | 0.00 | 0.00 | 0.00 | 33 | 1010.7 |
| 20260831015403 | 96 | 231 | 2.6 | 7.8 | 0.00 | 0.00 | 0.00 | 33 | 1010.6 |
| 20260831014904 | 96 | 237 | 3.5 | 7.8 | 0.00 | 0.00 | 0.00 | 32 | 1010.6 |
| 20260831014403 | 96 | 239 | 0.9 | 4.3 | 0.00 | 0.00 | 0.00 | 32 | 1010.5 |
| 20260831013403 | 96 | 237 | 1.7 | 2.6 | 0.00 | 0.00 | 0.00 | 32 | 1010.4 |
| 20260831012903 | 96 | 241 | 0.9 | 2.6 | 0.00 | 0.00 | 0.00 | 32 | 1010.4 |
| 20260831011903 | 96 | 277 | 0.9 | 5.2 | 0.00 | 0.00 | 0.00 | 31 | 1010.4 |
| 20260831011403 | 96 | 240 | 2.6 | 5.2 | 0.00 | 0.00 | 0.00 | 31 | 1010.4 |
| 20260831010903 | 96 | 229 | 2.6 | 5.2 | 0.00 | 0.00 | 0.00 | 31 | 1010.3 |
| 20260831005903 | 97 | 157 | 0.0 | 5.2 | 0.00 | 0.00 | 0.00 | 31 | 1010.3 |
| 20260831005404 | 97 | 298 | 0.9 | 5.2 | 0.00 | 0.00 | 0.00 | 31 | 1010.3 |
| 20260831003904 | 97 | 243 | 0.0 | 7.0 | 0.00 | 0.00 | 0.00 | 30 | 1010.3 |
| 20260831003403 | 97 | 19 | 0.9 | 7.0 | 0.00 | 0.00 | 0.00 | 29 | 1010.3 |
| 20260831002903 | 97 | 242 | 2.6 | 7.0 | 0.00 | 0.00 | 0.00 | 29 | 1010.3 |
| 20260831002404 | 98 | 243 | 0.9 | 6.1 | 0.00 | 0.00 | 0.00 | 29 | 1010.4 |
| 20260831001904 | 98 | 200 | 0.9 | 6.1 | 0.00 | 0.00 | 0.00 | 29 | 1010.4 |
| 20260831001403 | 98 | 229 | 0.9 | 6.1 | 0.00 | 0.00 | 0.00 | 29 | 1010.3 |
| 20260831000903 | 98 | 210 | 0.9 | 6.1 | 0.00 | 0.00 | 0.00 | 29 | 1010.5 |
| 20260831000403 | 98 | 256 | 0.0 | 6.1 | 0.00 | 0.00 | 0.00 | 28 | 1010.4 |
| 20260830235903 | 98 | 243 | 2.6 | 6.1 | 0.00 | 0.00 | 0.00 | 29 | 1010.4 |
| 20260830235403 | 98 | 237 | 2.6 | 6.1 | 0.00 | 0.00 | 0.00 | 29 | 1010.4 |
| 20260830234903 | 98 | 71 | 2.6 | 7.0 | 0.00 | 0.00 | 0.00 | 29 | 1010.4 |
| 20260830234403 | 98 | 224 | 2.6 | 7.0 | 0.00 | 0.00 | 0.00 | 29 | 1010.3 |
| 20260830233903 | 98 | 240 | 2.6 | 6.1 | 0.00 | 0.00 | 0.00 | 29 | 1010.4 |
| 20260830233404 | 98 | 46 | 1.7 | 5.2 | 0.00 | 0.00 | 0.00 | 28 | 1010.3 |
| 20260830232904 | 98 | 214 | 0.9 | 5.2 | 0.00 | 0.00 | 0.00 | 29 | 1010.5 |
| 20260830232403 | 98 | 251 | 1.7 | 5.2 | 0.00 | 0.00 | 0.00 | 29 | 1010.6 |
| 20260830231904 | 98 | 236 | 2.6 | 6.1 | 0.00 | 0.00 | 0.00 | 29 | 1010.6 |
| 20260830231403 | 98 | 238 | 0.9 | 6.1 | 0.00 | 0.00 | 0.00 | 28 | 1010.6 |
| 20260830230903 | 98 | 263 | 0.9 | 2.6 | 0.00 | 0.00 | 0.00 | 28 | 1010.7 |
| 20260830230403 | 99 | 316 | 0.9 | 5.2 | 0.00 | 0.00 | 0.00 | 29 | 1010.9 |
| 20260830225903 | 99 | 162 | 1.7 | 6.1 | 0.00 | 0.00 | 0.00 | 29 | 1011.0 |
| 20260830223404 | 99 | 11 | 0.9 | 7.0 | 0.00 | 0.00 | 0.00 | 28 | 1011.4 |
| 20260830222903 | 99 | 190 | 0.9 | 7.0 | 0.00 | 0.00 | 0.00 | 29 | 1011.5 |
| 20260830222403 | 99 | 298 | 1.7 | 7.0 | 0.00 | 0.00 | 0.00 | 29 | 1011.6 |
| 20260830221903 | 99 | 227 | 2.6 | 7.8 | 0.00 | 0.00 | 0.00 | 29 | 1011.6 |
| 20260830221403 | 99 | 318 | 2.6 | 7.8 | 0.00 | 0.00 | 0.00 | 29 | 1011.7 |
| 20260830220904 | 99 | 233 | 1.7 | 7.0 | 0.00 | 0.00 | 0.00 | 30 | 1011.7 |
| 20260830220404 | 99 | 293 | 2.6 | 7.0 | 0.00 | 0.00 | 0.00 | 30 | 1011.8 |
| 20260830215904 | 99 | 222 | 2.6 | 7.0 | 0.00 | 0.00 | 0.00 | 29 | 1012.0 |
| 20260830215403 | 99 | 172 | 1.7 | 7.0 | 0.00 | 0.00 | 0.00 | 29 | 1012.0 |
| 20260830214903 | 99 | 259 | 2.6 | 7.0 | 0.00 | 0.00 | 0.00 | 30 | 1012.1 |
| 20260830214403 | 99 | 299 | 0.9 | 7.0 | 0.00 | 0.00 | 0.00 | 30 | 1012.2 |
| 20260830213903 | 99 | 287 | 2.6 | 7.0 | 0.00 | 0.00 | 0.00 | 30 | 1012.3 |
| 20260830213403 | 98 | 282 | 1.7 | 7.0 | 0.00 | 0.00 | 0.00 | 30 | 1012.3 |
| 20260830212904 | 98 | 231 | 0.9 | 5.2 | 0.00 | 0.00 | 0.00 | 30 | 1012.4 |
| 20260830211904 | 98 | 8 | 1.7 | 7.8 | 0.00 | 0.00 | 0.00 | 30 | 1012.6 |
| 20260830211403 | 98 | 296 | 1.7 | 7.8 | 0.00 | 0.00 | 0.00 | 30 | 1012.6 |
| 20260830210903 | 98 | 47 | 1.7 | 4.3 | 0.00 | 0.00 | 0.00 | 30 | 1012.7 |
| 20260830210403 | 98 | 116 | 0.9 | 6.1 | 0.00 | 0.00 | 0.00 | 30 | 1012.8 |
| 20260830205904 | 98 | 66 | 1.7 | 6.1 | 0.00 | 0.00 | 0.00 | 30 | 1012.9 |
| 20260830204903 | 98 | 235 | 1.7 | 7.0 | 0.00 | 0.00 | 0.00 | 30 | 1013.0 |
| 20260830203903 | 98 | 236 | 4.3 | 7.0 | 0.00 | 0.00 | 0.00 | 30 | 1013.3 |
| 20260830203403 | 98 | 203 | 1.7 | 5.2 | 0.00 | 0.00 | 0.00 | 31 | 1013.5 |
| 20260830202903 | 98 | 259 | 0.9 | 4.3 | 0.00 | 0.00 | 0.00 | 31 | 1013.5 |
| 20260830202403 | 97 | 27 | 1.7 | 4.3 | 0.00 | 0.00 | 0.00 | 31 | 1013.5 |
| 20260830201904 | 98 | 49 | 0.9 | 4.3 | 0.00 | 0.00 | 0.00 | 31 | 1013.7 |
| 20260830201403 | 97 | 222 | 1.7 | 4.3 | 0.00 | 0.00 | 0.00 | 31 | 1013.7 |
| 20260830200904 | 97 | 48 | 1.7 | 4.3 | 0.00 | 0.00 | 0.00 | 31 | 1013.7 |
| 20260830200404 | 97 | 171 | 1.7 | 4.3 | 0.00 | 0.00 | 0.00 | 32 | 1013.7 |
| 20260830195903 | 97 | 200 | 0.9 | 7.8 | 0.00 | 0.00 | 0.00 | 31 | 1013.9 |
| 20260830194903 | 97 | 226 | 2.6 | 7.0 | 0.00 | 0.00 | 0.00 | 31 | 1014.0 |
| 20260830194403 | 97 | 213 | 1.7 | 4.3 | 0.00 | 0.00 | 0.00 | 31 | 1014.1 |
| 20260830193903 | 97 | 224 | 0.9 | 6.1 | 0.00 | 0.00 | 0.00 | 32 | 1014.1 |
| 20260830193403 | 97 | 37 | 2.6 | 6.1 | 0.00 | 0.00 | 0.00 | 32 | 1014.3 |
| 20260830192903 | 97 | 37 | 1.7 | 6.1 | 0.00 | 0.00 | 0.00 | 32 | 1014.3 |
| 20260830191903 | 97 | 241 | 1.7 | 5.2 | 0.00 | 0.00 | 0.00 | 33 | 1014.4 |
| 20260830191404 | 97 | 220 | 1.7 | 4.3 | 0.00 | 0.00 | 0.00 | 33 | 1014.5 |
| 20260830190904 | 96 | 296 | 1.7 | 5.2 | 0.00 | 0.00 | 0.00 | 33 | 1014.5 |
| 20260830190403 | 96 | 30 | 2.6 | 7.0 | 0.00 | 0.00 | 0.00 | 34 | 1014.6 |
| 20260830185903 | 96 | 251 | 3.5 | 7.8 | 0.00 | 0.00 | 0.00 | 34 | 1014.8 |
| 20260830185403 | 95 | 33 | 3.5 | 7.8 | 0.00 | 0.00 | 0.00 | 35 | 1014.9 |
| 20260830184903 | 95 | 329 | 0.9 | 7.0 | 0.00 | 0.00 | 0.00 | 34 | 1014.9 |
| 20260830183903 | 94 | 245 | 0.9 | 6.1 | 0.00 | 0.00 | 0.00 | 35 | 1015.0 |
| 20260830182904 | 94 | 239 | 1.7 | 6.1 | 0.00 | 0.00 | 0.00 | 35 | 1015.1 |
| 20260830182403 | 94 | 223 | 0.9 | 5.2 | 0.00 | 0.00 | 0.00 | 36 | 1015.3 |
| 20260830181903 | 94 | 212 | 1.7 | 5.2 | 0.00 | 0.00 | 0.00 | 35 | 1015.4 |
| 20260830181404 | 93 | 84 | 0.9 | 2.6 | 0.00 | 0.00 | 0.00 | 37 | 1015.3 |
| 20260830180903 | 93 | 111 | 0.9 | 2.6 | 0.00 | 0.00 | 0.00 | 36 | 1015.4 |
| 20260830180403 | 93 | 155 | 0.9 | 2.6 | 0.00 | 0.00 | 0.00 | 36 | 1015.4 |
| 20260830175903 | 93 | 131 | 0.9 | 4.3 | 0.00 | 0.00 | 0.00 | 37 | 1015.6 |
| 20260830175403 | 93 | 38 | 0.9 | 4.3 | 0.00 | 0.00 | 0.00 | 37 | 1015.6 |
| 20260830174903 | 93 | 75 | 1.7 | 6.1 | 0.00 | 0.00 | 0.00 | 37 | 1015.5 |
| 20260830174404 | 93 | 72 | 1.7 | 6.1 | 0.00 | 0.00 | 0.00 | 36 | 1015.6 |
| 20260830173903 | 93 | 74 | 1.7 | 6.1 | 0.00 | 0.00 | 0.00 | 37 | 1015.6 |
| 20260830173403 | 93 | 110 | 1.7 | 6.1 | 0.00 | 0.00 | 0.00 | 37 | 1015.7 |
| 20260830172903 | 93 | 81 | 1.7 | 4.3 | 0.00 | 0.00 | 0.00 | 37 | 1015.8 |
| 20260830171903 | 93 | 197 | 1.7 | 7.0 | 0.00 | 0.00 | 0.00 | 37 | 1015.8 |
| 20260830171403 | 92 | 65 | 0.9 | 2.6 | 0.00 | 0.00 | 0.00 | 38 | 1015.8 |
| 20260830170904 | 92 | 122 | 1.7 | 2.6 | 0.00 | 0.00 | 0.00 | 38 | 1015.9 |
| 20260830170403 | 92 | 235 | 0.9 | 4.3 | 0.00 | 0.00 | 0.00 | 38 | 1015.9 |
| 20260830165903 | 92 | 120 | 1.7 | 4.3 | 0.00 | 0.00 | 0.00 | 38 | 1015.9 |
| 20260830165404 | 92 | 156 | 0.9 | 5.2 | 0.00 | 0.00 | 0.00 | 38 | 1016.0 |
| 20260830164904 | 92 | 131 | 1.7 | 5.2 | 0.00 | 0.00 | 0.00 | 38 | 1016.0 |
| 20260830163903 | 91 | 114 | 0.9 | 6.1 | 0.00 | 0.00 | 0.00 | 39 | 1016.0 |
| 20260830163403 | 91 | 89 | 1.7 | 6.1 | 0.00 | 0.00 | 0.00 | 39 | 1016.0 |
| 20260830162904 | 91 | 177 | 1.7 | 6.1 | 0.00 | 0.00 | 0.00 | 39 | 1016.1 |
| 20260830162403 | 91 | 88 | 1.7 | 6.1 | 0.00 | 0.00 | 0.00 | 39 | 1016.1 |
| 20260830161904 | 91 | 183 | 1.7 | 6.1 | 0.00 | 0.00 | 0.00 | 39 | 1016.1 |
| 20260830161403 | 91 | 144 | 2.6 | 6.1 | 0.00 | 0.00 | 0.00 | 39 | 1016.1 |
| 20260830160903 | 91 | 196 | 1.7 | 6.1 | 0.00 | 0.00 | 0.00 | 39 | 1016.1 |
| 20260830160403 | 91 | 165 | 1.7 | 6.1 | 0.00 | 0.00 | 0.00 | 40 | 1016.1 |
| 20260830155903 | 91 | 85 | 1.7 | 6.1 | 0.00 | 0.00 | 0.00 | 40 | 1016.2 |
| 20260830155403 | 91 | 114 | 1.7 | 6.1 | 0.00 | 0.00 | 0.00 | 40 | 1016.1 |
| 20260830154903 | 91 | 192 | 1.7 | 5.2 | 0.00 | 0.00 | 0.00 | 40 | 1016.1 |
| 20260830154404 | 90 | 110 | 1.7 | 5.2 | 0.00 | 0.00 | 0.00 | 40 | 1016.0 |
| 20260830152903 | 90 | 135 | 1.7 | 6.1 | 0.00 | 0.00 | 0.00 | 42 | 1016.0 |
| 20260830152403 | 89 | 171 | 0.9 | 5.2 | 0.00 | 0.00 | 0.00 | 43 | 1016.0 |
| 20260830151903 | 89 | 106 | 2.6 | 5.2 | 0.00 | 0.00 | 0.00 | 43 | 1015.9 |
| 20260830150904 | 88 | 110 | 0.9 | 4.3 | 0.00 | 0.00 | 0.00 | 45 | 1016.1 |
| 20260830150403 | 87 | 179 | 1.7 | 5.2 | 0.00 | 0.00 | 0.00 | 45 | 1016.0 |
| 20260830145903 | 87 | 194 | 0.9 | 5.2 | 0.00 | 0.00 | 0.00 | 45 | 1016.1 |
| 20260830145403 | 86 | 183 | 0.9 | 4.3 | 0.00 | 0.00 | 0.00 | 46 | 1016.0 |
| 20260830144904 | 86 | 99 | 0.9 | 2.6 | 0.00 | 0.00 | 0.00 | 46 | 1016.1 |
| 20260830144404 | 86 | 88 | 0.0 | 2.6 | 0.00 | 0.00 | 0.00 | 46 | 1016.1 |
| 20260830143903 | 86 | 105 | 0.9 | 2.6 | 0.00 | 0.00 | 0.00 | 46 | 1016.1 |
| 20260830143403 | 86 | 103 | 0.9 | 1.7 | 0.00 | 0.00 | 0.00 | 46 | 1016.1 |
| 20260830142904 | 86 | 110 | 0.0 | 6.1 | 0.00 | 0.00 | 0.00 | 46 | 1016.1 |
| 20260830141903 | 86 | 87 | 1.7 | 7.8 | 0.00 | 0.00 | 0.00 | 46 | 1016.3 |
| 20260830141403 | 86 | 103 | 1.7 | 7.0 | 0.00 | 0.00 | 0.00 | 46 | 1016.3 |
| 20260830140903 | 86 | 122 | 1.7 | 7.0 | 0.00 | 0.00 | 0.00 | 46 | 1016.3 |
| 20260830140403 | 86 | 125 | 1.7 | 7.0 | 0.00 | 0.00 | 0.00 | 46 | 1016.3 |
| 20260830135904 | 86 | 114 | 0.9 | 2.6 | 0.00 | 0.00 | 0.00 | 46 | 1016.2 |
| 20260830134903 | 86 | 119 | 0.9 | 6.1 | 0.00 | 0.00 | 0.00 | 45 | 1016.1 |
| 20260830134403 | 86 | 113 | 0.9 | 6.1 | 0.00 | 0.00 | 0.00 | 45 | 1016.1 |
| 20260830133404 | 86 | 100 | 1.7 | 5.2 | 0.00 | 0.00 | 0.00 | 45 | 1016.1 |
| 20260830132903 | 86 | 119 | 0.9 | 5.2 | 0.00 | 0.00 | 0.00 | 45 | 1016.1 |
| 20260830132403 | 86 | 112 | 0.9 | 5.2 | 0.00 | 0.00 | 0.00 | 45 | 1016.0 |
| 20260830131903 | 86 | 117 | 1.7 | 6.1 | 0.00 | 0.00 | 0.00 | 45 | 1016.0 |
| 20260830131403 | 86 | 103 | 0.9 | 6.1 | 0.00 | 0.00 | 0.00 | 45 | 1016.0 |
| 20260830130904 | 86 | 115 | 1.7 | 2.6 | 0.00 | 0.00 | 0.00 | 45 | 1015.9 |
| 20260830130403 | 86 | 118 | 0.9 | 2.6 | 0.00 | 0.00 | 0.00 | 45 | 1015.9 |
| 20260830125904 | 86 | 94 | 1.7 | 2.6 | 0.00 | 0.00 | 0.00 | 45 | 1015.8 |
| 20260830125403 | 86 | 123 | 0.9 | 2.6 | 0.00 | 0.00 | 0.00 | 44 | 1015.7 |
| 20260830124903 | 86 | 144 | 0.9 | 2.6 | 0.00 | 0.00 | 0.00 | 44 | 1015.7 |
| 20260830124403 | 86 | 181 | 0.9 | 2.6 | 0.00 | 0.00 | 0.00 | 44 | 1015.6 |
| 20260830123403 | 87 | 117 | 0.9 | 2.6 | 0.00 | 0.00 | 0.00 | 43 | 1015.6 |
| 20260830122903 | 87 | 81 | 0.9 | 6.1 | 0.00 | 0.00 | 0.00 | 43 | 1015.5 |
| 20260830122404 | 87 | 102 | 1.7 | 6.1 | 0.00 | 0.00 | 0.00 | 43 | 1015.4 |
| 20260830121903 | 87 | 123 | 2.6 | 6.1 | 0.00 | 0.00 | 0.00 | 43 | 1015.4 |
| 20260830121404 | 87 | 129 | 1.7 | 8.7 | 0.00 | 0.00 | 0.00 | 43 | 1015.3 |
| 20260830120904 | 87 | 108 | 2.6 | 8.7 | 0.00 | 0.00 | 0.00 | 42 | 1015.3 |
| 20260830120404 | 87 | 103 | 2.6 | 8.7 | 0.00 | 0.00 | 0.00 | 41 | 1015.3 |
| 20260830115904 | 88 | 104 | 2.6 | 7.8 | 0.00 | 0.00 | 0.00 | 40 | 1015.3 |
| 20260830115403 | 88 | 120 | 2.6 | 7.8 | 0.00 | 0.00 | 0.00 | 39 | 1015.3 |
| 20260830114903 | 88 | 104 | 4.3 | 7.8 | 0.00 | 0.00 | 0.00 | 39 | 1015.3 |
| 20260830114403 | 88 | 116 | 2.6 | 7.8 | 0.00 | 0.00 | 0.00 | 39 | 1015.2 |
| 20260830113903 | 88 | 102 | 2.6 | 6.1 | 0.00 | 0.00 | 0.00 | 39 | 1015.2 |
| 20260830112903 | 87 | 135 | 1.7 | 6.1 | 0.00 | 0.00 | 0.00 | 38 | 1014.9 |
| 20260830111403 | 87 | 106 | 4.3 | 10.4 | 0.00 | 0.00 | 0.00 | 40 | 1013.8 |
| 20260830110904 | 87 | 76 | 2.6 | 10.4 | 0.00 | 0.00 | 0.00 | 40 | 1013.8 |
| 20260830110403 | 87 | 111 | 4.3 | 8.7 | 0.00 | 0.00 | 0.00 | 40 | 1014.0 |
| 20260830105403 | 87 | 201 | 2.6 | 7.8 | 0.00 | 0.00 | 0.00 | 39 | 1014.3 |
| 20260830104904 | 87 | 127 | 1.7 | 7.8 | 0.00 | 0.00 | 0.00 | 39 | 1014.3 |
| 20260830103903 | 87 | 128 | 2.6 | 7.8 | 0.00 | 0.00 | 0.00 | 39 | 1014.2 |
| 20260830103403 | 87 | 121 | 1.7 | 7.0 | 0.00 | 0.00 | 0.00 | 40 | 1014.1 |
| 20260830102903 | 87 | 105 | 2.6 | 7.0 | 0.00 | 0.00 | 0.00 | 40 | 1014.0 |
| 20260830102403 | 87 | 110 | 1.7 | 6.1 | 0.00 | 0.00 | 0.00 | 41 | 1014.0 |
| 20260830101903 | 87 | 135 | 1.7 | 7.0 | 0.00 | 0.00 | 0.00 | 41 | 1014.0 |
| 20260830101403 | 87 | 122 | 1.7 | 7.0 | 0.00 | 0.00 | 0.00 | 41 | 1013.9 |
| 20260830100403 | 87 | 116 | 0.9 | 2.6 | 0.00 | 0.00 | 0.00 | 41 | 1013.9 |
| 20260830095903 | 87 | 116 | 0.9 | 2.6 | 0.00 | 0.00 | 0.00 | 42 | 1013.9 |
| 20260830095404 | 87 | 113 | 0.9 | 2.6 | 0.00 | 0.00 | 0.00 | 42 | 1013.9 |
| 20260830094904 | 87 | 109 | 0.0 | 2.6 | 0.00 | 0.00 | 0.00 | 43 | 1013.8 |
| 20260830094403 | 87 | 113 | 0.0 | 2.6 | 0.00 | 0.00 | 0.00 | 43 | 1013.8 |
| 20260830093904 | 87 | 71 | 0.0 | 0.9 | 0.00 | 0.00 | 0.00 | 44 | 1013.8 |
| 20260830093403 | 87 | 71 | 0.0 | 0.9 | 0.00 | 0.00 | 0.00 | 43 | 1013.7 |
| 20260830092903 | 87 | 71 | 0.0 | 0.9 | 0.00 | 0.00 | 0.00 | 43 | 1013.6 |
| 20260830092403 | 87 | 71 | 0.0 | 0.9 | 0.00 | 0.00 | 0.00 | 43 | 1013.6 |
| 20260830091904 | 87 | 71 | 0.0 | 0.9 | 0.00 | 0.00 | 0.00 | 43 | 1013.6 |
| 20260830090903 | 87 | 71 | 0.0 | 1.7 | 0.00 | 0.00 | 0.00 | 43 | 1013.5 |
| 20260830090403 | 87 | 71 | 0.9 | 1.7 | 0.00 | 0.00 | 0.00 | 42 | 1013.5 |
| 20260830085904 | 87 | 86 | 0.0 | 1.7 | 0.00 | 0.00 | 0.00 | 42 | 1013.5 |
| 20260830085404 | 87 | 86 | 0.0 | 2.6 | 0.00 | 0.00 | 0.00 | 41 | 1013.4 |
| 20260830084403 | 87 | 108 | 0.0 | 1.7 | 0.00 | 0.00 | 0.00 | 41 | 1013.6 |
| 20260830083403 | 87 | 143 | 0.0 | 2.6 | 0.00 | 0.00 | 0.00 | 40 | 1013.7 |
| 20260830082903 | 87 | 159 | 0.0 | 2.6 | 0.00 | 0.00 | 0.00 | 40 | 1013.7 |
| 20260830081904 | 87 | 117 | 0.9 | 2.6 | 0.00 | 0.00 | 0.00 | 39 | 1013.5 |
| 20260830081403 | 87 | 117 | 0.9 | 5.2 | 0.00 | 0.00 | 0.00 | 39 | 1013.6 |
| 20260830075903 | 87 | 103 | 1.7 | 7.8 | 0.00 | 0.00 | 0.00 | 39 | 1013.4 |
| 20260830075404 | 88 | 57 | 4.3 | 7.8 | 0.00 | 0.00 | 0.00 | 39 | 1013.4 |
| 20260830074903 | 88 | 128 | 2.6 | 6.1 | 0.00 | 0.00 | 0.00 | 40 | 1013.5 |
| 20260830074404 | 88 | 105 | 1.7 | 6.1 | 0.00 | 0.00 | 0.00 | 41 | 1013.6 |
| 20260830073903 | 88 | 84 | 1.7 | 4.3 | 0.00 | 0.00 | 0.00 | 42 | 1013.7 |
| 20260830073403 | 88 | 95 | 0.9 | 2.6 | 0.00 | 0.00 | 0.00 | 42 | 1013.8 |
| 20260830072903 | 88 | 79 | 0.0 | 2.6 | 0.00 | 0.00 | 0.00 | 43 | 1013.7 |
| 20260830072403 | 88 | 49 | 0.0 | 2.6 | 0.00 | 0.00 | 0.00 | 43 | 1013.8 |
| 20260830071903 | 88 | 125 | 0.0 | 4.3 | 0.00 | 0.00 | 0.00 | 42 | 1013.6 |
| 20260830071403 | 88 | 106 | 0.9 | 5.2 | 0.00 | 0.00 | 0.00 | 42 | 1013.5 |
| 20260830070904 | 88 | 188 | 1.7 | 5.2 | 0.00 | 0.00 | 0.00 | 42 | 1013.6 |
| 20260830070403 | 88 | 189 | 1.7 | 5.2 | 0.00 | 0.00 | 0.00 | 42 | 1013.5 |
| 20260830065904 | 88 | 204 | 0.9 | 1.7 | 0.00 | 0.00 | 0.00 | 42 | 1013.4 |
| 20260830065404 | 88 | 118 | 0.0 | 1.7 | 0.00 | 0.00 | 0.00 | 42 | 1013.3 |
| 20260830063904 | 88 | 105 | 0.0 | 1.7 | 0.00 | 0.00 | 0.00 | 42 | 1013.3 |
| 20260830063403 | 88 | 105 | 0.0 | 2.6 | 0.00 | 0.00 | 0.00 | 42 | 1013.2 |
| 20260830062903 | 88 | 102 | 0.9 | 2.6 | 0.00 | 0.00 | 0.00 | 42 | 1013.3 |
| 20260830062403 | 88 | 99 | 0.9 | 2.6 | 0.00 | 0.00 | 0.00 | 42 | 1013.2 |
| 20260830061903 | 88 | 154 | 0.0 | 1.7 | 0.00 | 0.00 | 0.00 | 43 | 1013.0 |
| 20260830061403 | 88 | 103 | 0.0 | 1.7 | 0.00 | 0.00 | 0.00 | 43 | 1012.9 |
| 20260830060904 | 88 | 78 | 0.0 | 2.6 | 0.00 | 0.00 | 0.00 | 43 | 1013.0 |
| 20260830060403 | 88 | 87 | 0.0 | 4.3 | 0.00 | 0.00 | 0.00 | 43 | 1012.8 |
| 20260830055903 | 88 | 58 | 2.6 | 4.3 | 0.00 | 0.00 | 0.00 | 43 | 1012.8 |
| 20260830055403 | 88 | 73 | 0.9 | 4.3 | 0.00 | 0.00 | 0.00 | 43 | 1013.1 |
| 20260830054903 | 88 | 97 | 0.9 | 7.0 | 0.00 | 0.00 | 0.00 | 43 | 1013.1 |
| 20260830054403 | 88 | 54 | 1.7 | 7.0 | 0.00 | 0.00 | 0.00 | 42 | 1012.9 |
| 20260830053404 | 88 | 68 | 2.6 | 7.0 | 0.00 | 0.00 | 0.00 | 43 | 1013.1 |
| 20260830052904 | 88 | 66 | 2.6 | 7.0 | 0.00 | 0.00 | 0.00 | 44 | 1013.4 |
| 20260830052403 | 88 | 64 | 1.7 | 7.0 | 0.00 | 0.00 | 0.00 | 44 | 1013.6 |
| 20260830051904 | 88 | 54 | 2.6 | 7.0 | 0.00 | 0.00 | 0.00 | 45 | 1013.8 |
| 20260830051403 | 87 | 55 | 2.6 | 7.0 | 0.00 | 0.00 | 0.00 | 45 | 1013.9 |
| 20260830050403 | 88 | 59 | 2.6 | 6.1 | 0.00 | 0.00 | 0.00 | 46 | 1014.4 |
| 20260830045903 | 88 | 67 | 1.7 | 6.1 | 0.00 | 0.00 | 0.00 | 47 | 1014.8 |
| 20260830045403 | 88 | 45 | 2.6 | 6.1 | 0.00 | 0.00 | 0.00 | 47 | 1015.0 |
| 20260830044404 | 88 | 41 | 1.7 | 2.6 | 0.00 | 0.00 | 0.00 | 49 | 1015.3 |
| 20260830043403 | 88 | 37 | 0.0 | 2.6 | 0.00 | 0.00 | 0.00 | 49 | 1015.3 |
| 20260830042903 | 88 | 67 | 0.0 | 4.3 | 0.00 | 0.00 | 0.00 | 49 | 1015.3 |
| 20260830042404 | 88 | 39 | 0.9 | 4.3 | 0.00 | 0.00 | 0.00 | 50 | 1015.4 |
| 20260830041903 | 89 | 28 | 1.7 | 2.6 | 0.00 | 0.00 | 0.00 | 48 | 1015.4 |
| 20260830041403 | 89 | 56 | 0.9 | 1.7 | 0.00 | 0.00 | 0.00 | 48 | 1015.6 |
| 20260830040903 | 89 | 331 | 0.0 | 2.6 | 0.00 | 0.00 | 0.00 | 47 | 1015.5 |
| 20260830040403 | 89 | 249 | 0.9 | 8.7 | 0.00 | 0.00 | 0.00 | 44 | 1015.5 |
| 20260830035904 | 90 | 239 | 1.7 | 8.7 | 0.00 | 0.00 | 0.00 | 44 | 1015.4 |
| 20260830035404 | 90 | 232 | 2.6 | 7.0 | 0.00 | 0.00 | 0.00 | 42 | 1015.3 |
| 20260830034404 | 91 | 228 | 2.6 | 8.7 | 0.00 | 0.00 | 0.00 | 42 | 1015.1 |
| 20260830033903 | 91 | 252 | 2.6 | 8.7 | 0.00 | 0.00 | 0.00 | 42 | 1015.0 |
| 20260830032403 | 91 | 230 | 0.9 | 4.3 | 0.00 | 0.00 | 0.00 | 41 | 1014.5 |
| 20260830031903 | 92 | 209 | 0.9 | 4.3 | 0.00 | 0.00 | 0.00 | 40 | 1014.4 |
| 20260830031404 | 92 | 277 | 0.9 | 7.0 | 0.00 | 0.00 | 0.00 | 39 | 1014.2 |
| 20260830030904 | 92 | 233 | 2.6 | 7.0 | 0.00 | 0.00 | 0.00 | 38 | 1014.0 |
| 20260830030403 | 92 | 220 | 1.7 | 6.1 | 0.00 | 0.00 | 0.00 | 37 | 1013.9 |
| 20260830025904 | 93 | 20 | 0.9 | 1.7 | 0.00 | 0.00 | 0.00 | 36 | 1013.6 |
| 20260830025403 | 93 | 218 | 0.9 | 4.3 | 0.00 | 0.00 | 0.00 | 36 | 1013.5 |
| 20260830024903 | 93 | 230 | 1.7 | 4.3 | 0.00 | 0.00 | 0.00 | 35 | 1013.6 |
| 20260830024403 | 93 | 224 | 0.9 | 7.8 | 0.00 | 0.00 | 0.00 | 35 | 1013.7 |
| 20260830023903 | 93 | 219 | 1.7 | 7.8 | 0.00 | 0.00 | 0.00 | 35 | 1013.7 |
| 20260830023403 | 93 | 235 | 1.7 | 7.8 | 0.00 | 0.00 | 0.00 | 35 | 1013.5 |
| 20260830022903 | 94 | 214 | 4.3 | 7.8 | 0.00 | 0.00 | 0.00 | 33 | 1013.2 |